Weather History for Muncie, IN

Change the Weather History Date:

Sunday, July 20, 2014

  Actual Average Record
Temperature  
Mean Temperature 69 °F 74 °F  
Max Temperature 82 °F 84 °F 96 °F (1977)
Min Temperature 55 °F 64 °F 51 °F (2007)
Degree Days  
Heating Degree Days 0 0  
Month to date heating degree days 9 0  
Since 1 June heating degree days 17 24  
Since 1 July heating degree days 9 0  
Cooling Degree Days 4 9  
Month to date cooling degree days 103 198  
Year to date cooling degree days 463 497  
Since 1 June cooling degree days 348 414  
Growing Degree Days 18 (Base 50)    
Moisture  
Dew Point 57 °F    
Average Humidity 66    
Maximum Humidity 93    
Minimum Humidity 39    
Precipitation  
Precipitation 0.00 in 0.15 in 2.20 in (1969)
Month to date precipitation 1.91 2.93  
Year to date precipitation 22.14 23.16  
Sea Level Pressure  
Sea Level Pressure 30.05 in    
Wind  
Wind Speed 2 mph (ESE)    
Max Wind Speed 9 mph    
Max Gust Speed 13 mph    
Visibility 5 miles    
Events Fog    
T = Trace of Precipitation, MM = Missing Value Source: NWS Daily Summary

Daily Weather History Graph

Daily Weather History Graph

Search for Another Location

Airport:

Trip Planner

Search our weather history database for the weather conditions in past years. The results will help you decide how hot, cold, wet, or windy it might be!

Date:

Astronomy

Jul. 20, 2014 Rise Set
Actual Time 6:28 AM EDT 9:06 PM EDT
Civil Twilight 5:57 AM EDT 9:38 PM EDT
Nautical Twilight 5:17 AM EDT 10:17 PM EDT
Astronomical Twilight 4:33 AM EDT 11:01 PM EDT
Moon 1:40 AM EDT (7/20) 3:49 PM EDT (7/20)
Length of Visible Light 15h 41m
Length of Day
14h 38m
Waning Crescent, 34% of the Moon is Illuminated
Jul 20
Waning Crescent
Jul 26
New
Aug 3
First Quarter
Aug 10
Full
Aug 17
Last Quarter

Hourly Weather History & Observations

Time (EDT) Temp. Heat Index Dew Point Humidity Pressure Visibility Wind Dir Wind Speed Gust Speed Precip Events Conditions
12:53 AM 62.1 °F - 59.0 °F 90% 30.04 in 10.0 mi Calm Calm - N/A   Clear
1:53 AM 60.1 °F - 57.0 °F 90% 30.03 in 7.0 mi Calm Calm - N/A   Clear
2:30 AM 59.0 °F - 57.0 °F 93% 30.04 in 1.8 mi Calm Calm - N/A   Clear
2:40 AM 57.9 °F - 55.9 °F 93% 30.04 in 0.5 mi East 3.5 mph - N/A Fog Fog
2:53 AM 59.0 °F - 57.0 °F 93% 30.01 in 1.0 mi Calm Calm - N/A   Clear
2:56 AM 57.9 °F - 55.9 °F 93% 30.04 in 3.0 mi Calm Calm - N/A   Clear
3:06 AM 57.9 °F - 55.9 °F 93% 30.04 in 1.8 mi Calm Calm - N/A   Clear
3:16 AM 59.0 °F - 57.0 °F 93% 30.04 in 0.5 mi Calm Calm - N/A Fog Fog
3:38 AM 57.0 °F - 55.0 °F 93% 30.04 in 1.2 mi Calm Calm - N/A   Partly Cloudy
3:41 AM 57.9 °F - 55.0 °F 90% 30.04 in 0.8 mi Calm Calm - N/A   Mist
3:53 AM 57.9 °F - 55.9 °F 93% 30.02 in 0.8 mi Calm Calm - N/A   Mist
3:56 AM 59.0 °F - 55.9 °F 90% 30.04 in 1.2 mi Calm Calm - N/A   Clear
4:05 AM 59.0 °F - 55.9 °F 90% 30.04 in 8.0 mi Calm Calm - N/A   Clear
4:53 AM 57.0 °F - 54.0 °F 89% 30.02 in 1.8 mi Calm Calm - N/A   Clear
5:01 AM 55.9 °F - 55.0 °F 97% 30.04 in 2.0 mi Calm Calm - N/A   Clear
5:04 AM 55.9 °F - 54.0 °F 93% 30.05 in 1.2 mi Calm Calm - N/A   Partly Cloudy
5:17 AM 55.9 °F - 54.0 °F 93% 30.05 in 1.5 mi Calm Calm - N/A   Partly Cloudy
5:19 AM 55.9 °F - 54.0 °F 93% 30.05 in 4.0 mi Calm Calm - N/A   Partly Cloudy
5:36 AM 55.9 °F - 54.0 °F 93% 30.05 in 1.8 mi Calm Calm - N/A   Clear
5:42 AM 57.0 °F - 54.0 °F 89% 30.06 in 0.8 mi Calm Calm - N/A   Mist
5:51 AM 57.2 °F - 55.4 °F 94% 30.06 in 1.2 mi Calm Calm - N/A   Scattered Clouds
5:53 AM 55.9 °F - 54.0 °F 93% 30.04 in 2.0 mi Calm Calm - N/A   Partly Cloudy
6:00 AM 55.9 °F - 53.1 °F 90% 30.06 in 3.0 mi Calm Calm - N/A   Scattered Clouds
6:02 AM 55.9 °F - 53.1 °F 90% 30.06 in 1.5 mi Calm Calm - N/A   Scattered Clouds
6:04 AM 55.9 °F - 54.0 °F 93% 30.06 in 0.8 mi Calm Calm - N/A   Mist
6:11 AM 55.0 °F - 53.1 °F 93% 30.06 in 0.2 mi Calm Calm - N/A Fog Fog
6:53 AM 55.9 °F - 53.1 °F 90% 30.05 in 0.2 mi Calm Calm - N/A Fog Fog
7:24 AM 57.0 °F - 55.0 °F 93% 30.07 in 0.2 mi Calm Calm - N/A Fog Fog
7:37 AM 57.9 °F - 57.0 °F 97% 30.08 in 1.0 mi Calm Calm - N/A   Mist
7:41 AM 59.0 °F - 57.0 °F 93% 30.08 in 3.0 mi Calm Calm - N/A   Mostly Cloudy
7:51 AM 59.0 °F - 57.2 °F 94% 30.08 in 6.0 mi Calm Calm - N/A   Scattered Clouds
7:53 AM 60.1 °F - 57.9 °F 93% 30.06 in 6.0 mi Calm Calm - N/A   Scattered Clouds
8:53 AM 64.9 °F - 61.0 °F 87% 30.07 in 10.0 mi Calm Calm - N/A   Clear
9:53 AM 70.0 °F - 63.0 °F 78% 30.07 in 10.0 mi ENE 3.5 mph - N/A   Clear
10:53 AM 73.0 °F - 61.0 °F 66% 30.08 in 10.0 mi East 4.6 mph - N/A   Clear
11:32 AM 73.0 °F - 61.0 °F 66% 30.10 in 10.0 mi SSE 4.6 mph - N/A   Mostly Cloudy
11:43 AM 75.0 °F - 61.0 °F 62% 30.09 in 10.0 mi East 8.1 mph - N/A   Scattered Clouds
11:53 AM 73.9 °F - 61.0 °F 64% 30.07 in 10.0 mi ESE 3.5 mph - N/A   Scattered Clouds
12:53 PM 78.1 °F - 61.0 °F 56% 30.06 in 10.0 mi Variable 5.8 mph - N/A   Partly Cloudy
1:53 PM 78.1 °F - 59.0 °F 52% 30.05 in 10.0 mi ENE 5.8 mph - N/A   Scattered Clouds
2:53 PM 78.1 °F - 59.0 °F 52% 30.04 in 10.0 mi Calm Calm - N/A   Partly Cloudy
3:53 PM 78.1 °F - 57.9 °F 50% 30.03 in 10.0 mi NE 3.5 mph - N/A   Mostly Cloudy
4:53 PM 81.0 °F 80.5 °F 54.0 °F 39% 30.02 in 10.0 mi SW 3.5 mph - N/A   Scattered Clouds
5:53 PM 82.0 °F 81.4 °F 55.0 °F 39% 30.02 in 10.0 mi SE 3.5 mph - N/A   Clear
6:53 PM 79.0 °F - 57.9 °F 48% 30.02 in 10.0 mi SE 4.6 mph - N/A   Mostly Cloudy
7:53 PM 78.1 °F - 57.0 °F 48% 30.02 in 10.0 mi SE 4.6 mph - N/A   Clear
8:53 PM 77.0 °F - 57.0 °F 50% 30.02 in 10.0 mi South 3.5 mph - N/A   Clear
9:53 PM 68.0 °F - 60.1 °F 76% 30.03 in 10.0 mi Calm Calm - N/A   Clear
10:53 PM 68.0 °F - 60.1 °F 76% 30.04 in 10.0 mi Calm Calm - N/A   Clear
11:53 PM 64.0 °F - 60.1 °F 87% 30.05 in 10.0 mi Calm Calm - N/A   Clear